[[{"header":{"parameterUnit":"m.s-1","parameterCategory":1,"la1":30.2991,"la2":30.254,"lo1":-89.0895,"lo2":-89.0444,"dy":0.0017,"dx":0.0017,"nx":28,"ny":28,"refTime":"2024-02-28T03:00:00:Z","depth":0,"parameterNumber":2,"parameterNumberName":"U-component_of_WINDS"},"data":[0,0,0,0,0,0,0,0,0,0,0,0,0,0,0,0,0,0,0,0,0,0,0,0,0,0,0,0,0,0,0,0,0,0,0,0,0,0,0,0,0,0,0,0,0,0,0,0,0,0,0,0,0,0,0,0,0,0,-4.3281,-4.3282,0,-4.3332,-4.3332,-4.3333,-4.3238,-4.3235,-4.3231,-4.3228,-4.328,-4.3284,-4.3289,0,0,0,0,0,0,0,0,0,0,0,0,0,-4.3103,-4.3107,-4.3281,-4.3282,-4.3283,-4.3332,-4.3332,-4.3333,-4.3238,-4.3234,-4.3231,-4.3227,-4.3279,-4.3284,-4.3289,0,0,0,0,0,0,0,0,0,0,0,0,0,-4.317,-4.3108,-4.3281,-4.3241,-4.3238,-4.3331,-4.3332,-4.3333,-4.3239,-4.3234,-4.323,-4.3225,-4.3277,-4.3283,-4.329,-4.3424,0,0,-4.3309,-4.3312,0,0,0,0,0,0,0,0,-4.3166,-4.3176,-4.3247,-4.3244,-4.3241,-4.3274,-4.3288,-4.3364,-4.324,-4.3239,-4.3228,-4.3223,-4.3282,-4.3287,-4.3307,-4.3426,-4.3429,-4.331,-4.3314,-4.3317,-4.3318,0,0,0,0,0,0,0,-4.3161,-4.3173,-4.3301,-4.3248,-4.3244,-4.3221,-4.3225,-4.3302,-4.3286,-4.3239,-4.3232,-4.3239,-4.3279,-4.3301,-4.3308,-4.3429,-4.331,-4.3315,-4.3319,-4.3322,-4.3662,-4.3666,0,0,0,0,0,0,-4.3162,-4.317,-4.33,-4.3303,-4.3191,-4.3228,-4.3232,-4.3268,-4.3285,-4.3283,-4.3243,-4.3234,-4.3293,-4.33,-4.3309,-4.3468,-4.3317,-4.3323,-4.3326,-4.3656,-4.3663,-4.3668,0,0,0,0,0,0,-4.3158,-4.3174,-4.3298,-4.3235,-4.3249,-4.3236,-4.3276,-4.3271,-4.3293,-4.3288,-4.3285,-4.3269,-4.3289,-4.33,-4.3396,-4.3469,-4.3326,-4.3331,-4.365,-4.3658,-4.3665,-4.3788,0,0,0,0,0,0,-4.3154,-4.3174,-4.3225,-4.3237,-4.3252,-4.3384,-4.3281,-4.3276,-4.3305,-4.3294,-4.3311,-4.331,-4.3286,-4.3387,-4.3403,-4.3475,-4.3336,-4.3644,-4.3654,-4.3663,-4.3777,-4.3799,-4.3817,0,0,0,0,0,-4.3148,-4.3257,-4.3228,-4.3244,-4.3316,-4.3389,-4.3398,-4.3368,-4.3311,-4.3362,-4.3359,-4.3309,-4.3458,-4.3398,-4.3415,-4.349,-4.3639,-4.3651,-4.3662,-4.3768,-4.3795,-4.3817,0,0,0,0,0,0,-4.3254,-4.3258,-4.3226,-4.3342,-4.3366,-4.3373,-4.3437,-4.3397,-4.3438,-4.3426,-4.3387,-4.3392,-4.3496,-4.3502,-4.3435,-4.3621,-4.3539,-4.3554,-4.3614,-4.3639,-4.3658,-4.3655,-4.3342,0,0,0,0,0,-4.3292,-4.335,-4.335,-4.3453,-4.3467,-4.345,-4.348,-4.3456,-4.3479,-4.3488,-4.3492,-4.3516,-4.3568,-4.3603,-4.3651,-4.3777,-4.378,-4.3837,-4.3857,-4.3873,-4.3888,-4.3955,-4.3981,-4.3706,-4.3706,-4.3706,0,0,-4.3369,-4.3378,-4.3418,-4.3475,-4.349,-4.3552,-4.3459,-4.3528,-4.3574,-4.3499,-4.359,-4.3594,-4.3618,-4.373,-4.3779,-4.3738,-4.3964,-4.3888,-4.3901,-4.3907,-4.397,-4.3996,-4.4019,-4.3714,-4.3713,-4.3711,0,0,-4.3542,-4.3555,-4.3642,-4.3659,-4.3684,-4.3672,-4.3693,-4.3706,-4.3705,-4.3796,-4.3741,-4.3794,-4.3884,-4.3904,-4.3926,-4.4106,-4.4062,-4.4122,-4.4228,-4.4294,-4.4316,-4.4335,-4.44,-4.4424,-4.4136,-4.4137,-4.4137,0,-4.3636,-4.3727,-4.3692,-4.3766,-4.3793,-4.3727,-4.3815,-4.3833,-4.3872,-4.3893,-4.3845,-4.3958,-4.3969,-4.4085,-4.4129,-4.4149,-4.4172,-4.4121,-4.4315,-4.4334,-4.4351,-4.4413,-4.4438,-4.4144,-4.4143,-4.4142,-4.4142,0,-4.3841,-4.3905,-4.3972,-4.4012,-4.4046,-4.4127,-4.4104,-4.4143,-4.4115,-4.4108,-4.4201,-4.4213,-4.4262,-4.4287,-4.426,-4.4399,-4.4373,-4.4321,-4.4238,-4.4385,-4.4443,-4.4466,-4.4154,-4.4152,-4.415,-4.4148,0,0,-4.4085,-4.4103,-4.4129,-4.4146,-4.4168,-4.4217,-4.4294,-4.4342,-4.4376,-4.4404,-4.4469,-4.4546,-4.4499,-4.4524,-4.4498,-4.4556,-4.4699,-4.4497,-4.4497,-4.4536,-4.4854,-4.4895,-4.4923,-4.4669,-4.4674,-4.4677,-4.4853,0,-4.4258,-4.4391,-4.4362,-4.4494,-4.4553,-4.449,-4.4558,-4.4578,-4.4573,-4.4622,-4.4616,-4.4673,-4.4605,-4.4619,-4.4674,-4.4671,-4.4763,-4.4657,-4.473,-4.4733,-4.4728,-4.4952,-4.4995,-4.5161,-4.4875,-4.4879,-4.4881,0,-4.4478,-4.4515,-4.4653,-4.4665,-4.4688,-4.475,-4.4791,-4.4839,-4.486,-4.4853,-4.4881,-4.4844,-4.492,-4.4835,-4.494,-4.4869,-4.4896,-4.4899,-4.4904,-4.4912,-4.4817,-4.4967,-4.5212,-4.5238,-4.4916,-4.4913,-4.4911,0,-4.4644,-4.4728,-4.4821,-4.4838,-4.4854,-4.4898,-4.4907,-4.4924,-4.4955,-4.4991,-4.501,-4.5054,-4.5079,-4.5114,-4.5091,-4.503,-4.52,-4.5113,-4.5197,-4.5198,-4.5237,-4.5235,-4.5492,-4.5252,-4.5252,-4.5251,-4.5251,0,-4.4841,-4.4928,-4.4896,-4.4954,-4.5049,-4.5014,-4.511,-4.5111,-4.5127,-4.5183,-4.5131,-4.5186,-4.515,-4.5201,-4.5183,-4.5273,-4.5284,-4.5281,-4.5275,-4.5287,-4.5287,-4.5305,-4.5294,-4.5258,-4.5256,-4.5255,-4.5254,0,-4.5044,-4.5025,-4.5123,-4.513,-4.5134,-4.5204,-4.521,-4.5264,-4.5254,-4.5327,-4.5342,-4.5327,-4.5385,-4.5364,-4.5425,-4.5413,-4.5529,-4.5507,-4.5522,-4.5517,-4.5603,-4.5596,-4.5882,-4.5918,-4.5653,-4.5656,-4.5658,0,-4.5172,-4.5237,-4.5251,-4.5286,-4.5298,-4.5354,-4.5385,-4.5352,-4.5387,-4.5416,-4.5466,-4.5519,-4.556,-4.5655,-4.565,-4.5697,-4.5677,-4.5774,-4.5684,-4.5694,-4.5681,-4.5678,-4.5685,-4.5793,-4.5796,-4.5798,-4.58,0,-4.5402,-4.5389,-4.5436,-4.548,-4.5518,-4.5551,-4.5579,-4.561,-4.5579,-4.562,-4.5679,-4.571,-4.5773,-4.5827,-4.5868,-4.5877,-4.5835,-4.5828,-4.5851,-4.5864,-4.587,-4.587,-4.5573,-4.5823,-4.582,-4.5819,-4.5818,-4.5817,-4.5572,-4.5627,-4.5646,-4.57,-4.5717,-4.5745,-4.5796,-4.5792,-4.584,-4.5889,-4.5866,-4.5934,-4.5954,-4.6005,-4.602,-4.6072,-4.6035,-4.6067,-4.6075,-4.6084,-4.6096,-4.5861,-4.608,-4.6079,-4.6078,-4.6078,-4.6077,0,-4.58,-4.5809,-4.5859,-4.59,-4.5942,-4.5897,-4.5926,-4.5964,-4.6025,-4.6046,-4.6087,-4.6155,-4.6206,-4.6205,-4.6252,-4.6295,-4.6277,-4.6309,-4.6306,-4.6309,-4.6126,-4.6103,-4.6323,-4.6323,-4.6323,-4.6323,-4.6322,-4.6322,-4.5924,-4.6016,-4.6006,-4.6106,-4.6113,-4.618,-4.62,-4.6225,-4.6242,-4.632,-4.6362,-4.6361,-4.6373,-4.6421,-4.6466,-4.6465,-4.6485,-4.6525,-4.6517,-4.6346,-4.6322,-4.6299,-4.6277,-4.653,-4.653,-4.6695,-4.6697,-4.6698]},{"header":{"parameterUnit":"m.s-1","parameterCategory":1,"la1":30.2991,"la2":30.254,"lo1":-89.0895,"lo2":-89.0444,"dy":0.0017,"dx":0.0017,"nx":28,"ny":28,"refTime":"2024-02-28T03:00:00:Z","depth":0,"parameterNumber":3,"parameterNumberName":"V-component_of_WINDS"},"data":[0,0,0,0,0,0,0,0,0,0,0,0,0,0,0,0,0,0,0,0,0,0,0,0,0,0,0,0,0,0,0,0,0,0,0,0,0,0,0,0,0,0,0,0,0,0,0,0,0,0,0,0,0,0,0,0,0,0,-5.5733,-5.5733,0,-5.577,-5.5771,-5.5771,-5.5708,-5.5706,-5.5704,-5.5702,-5.5738,-5.5741,-5.5744,0,0,0,0,0,0,0,0,0,0,0,0,0,-5.5603,-5.5605,-5.5733,-5.5733,-5.5734,-5.577,-5.5771,-5.5771,-5.5708,-5.5706,-5.5703,-5.5701,-5.5737,-5.574,-5.5744,0,0,0,0,0,0,0,0,0,0,0,0,0,-5.5652,-5.5606,-5.5733,-5.5707,-5.5705,-5.577,-5.5771,-5.5771,-5.5709,-5.5706,-5.5703,-5.57,-5.5736,-5.574,-5.5744,-5.5836,0,0,-5.5758,-5.576,0,0,0,0,0,0,0,0,-5.5649,-5.5656,-5.571,-5.5709,-5.5707,-5.5731,-5.5738,-5.5793,-5.571,-5.5707,-5.5702,-5.5698,-5.5738,-5.5742,-5.5756,-5.5837,-5.5839,-5.5758,-5.5761,-5.5763,-5.5764,0,0,0,0,0,0,0,-5.5646,-5.5654,-5.5747,-5.5711,-5.5709,-5.5692,-5.5695,-5.5748,-5.574,-5.5707,-5.5703,-5.5708,-5.5736,-5.5752,-5.5756,-5.584,-5.5758,-5.5762,-5.5765,-5.5767,-5.5996,-5.5999,0,0,0,0,0,0,-5.5646,-5.5652,-5.5746,-5.5749,-5.5669,-5.5697,-5.5701,-5.5727,-5.5739,-5.5738,-5.5711,-5.5705,-5.5746,-5.5751,-5.5757,-5.5864,-5.5763,-5.5767,-5.5769,-5.5992,-5.5997,-5.6,0,0,0,0,0,0,-5.5643,-5.5655,-5.5745,-5.5699,-5.5709,-5.5703,-5.5732,-5.5729,-5.5744,-5.5742,-5.574,-5.5729,-5.5744,-5.5751,-5.5817,-5.5865,-5.5769,-5.5773,-5.5988,-5.5994,-5.5998,-5.608,0,0,0,0,0,0,-5.564,-5.5654,-5.569,-5.57,-5.5712,-5.5805,-5.5735,-5.5732,-5.5753,-5.5745,-5.5758,-5.5757,-5.5742,-5.581,-5.5821,-5.5869,-5.5776,-5.5984,-5.5991,-5.5997,-5.6072,-5.6087,-5.6099,0,0,0,0,0,-5.5635,-5.5711,-5.5692,-5.5704,-5.5757,-5.5808,-5.5814,-5.5795,-5.5757,-5.5792,-5.579,-5.5757,-5.5858,-5.5818,-5.5829,-5.5879,-5.5981,-5.5989,-5.5996,-5.6067,-5.6084,-5.6099,0,0,0,0,0,0,-5.5706,-5.5712,-5.5691,-5.5773,-5.579,-5.5797,-5.5841,-5.5815,-5.5843,-5.5835,-5.581,-5.5813,-5.5883,-5.5888,-5.5843,-5.5967,-5.5913,-5.5923,-5.5962,-5.5979,-5.5992,-5.5989,-5.578,0,0,0,0,0,-5.5731,-5.5773,-5.5776,-5.5847,-5.5857,-5.5848,-5.5869,-5.5853,-5.587,-5.5877,-5.588,-5.5896,-5.5931,-5.5955,-5.5988,-5.6073,-5.6074,-5.6113,-5.6126,-5.6137,-5.6146,-5.619,-5.6207,-5.6026,-5.6026,-5.6026,0,0,-5.5784,-5.5792,-5.582,-5.5862,-5.5873,-5.5916,-5.5854,-5.5902,-5.5933,-5.5884,-5.5945,-5.5948,-5.5965,-5.604,-5.6074,-5.6046,-5.6196,-5.6147,-5.6155,-5.6159,-5.6199,-5.6217,-5.6232,-5.6031,-5.603,-5.6029,0,0,-5.5901,-5.5912,-5.5972,-5.5985,-5.6003,-5.5996,-5.6011,-5.6021,-5.6021,-5.6083,-5.6046,-5.6082,-5.6144,-5.6157,-5.6171,-5.6292,-5.6262,-5.6303,-5.6372,-5.6415,-5.6429,-5.6442,-5.6484,-5.6499,-5.6312,-5.6312,-5.6313,0,-5.5963,-5.6027,-5.6006,-5.6057,-5.6075,-5.6033,-5.6093,-5.6106,-5.6134,-5.6147,-5.6116,-5.6192,-5.62,-5.6277,-5.6306,-5.632,-5.6335,-5.6301,-5.6429,-5.6442,-5.6453,-5.6492,-5.6508,-5.6317,-5.6317,-5.6316,-5.6316,0,-5.6102,-5.6147,-5.6193,-5.6221,-5.6245,-5.63,-5.6286,-5.6313,-5.6295,-5.629,-5.6353,-5.6361,-5.6394,-5.6411,-5.6394,-5.6485,-5.6468,-5.6434,-5.6378,-5.6475,-5.6512,-5.6527,-5.6324,-5.6322,-5.6321,-5.632,0,0,-5.6265,-5.6281,-5.6298,-5.631,-5.6326,-5.636,-5.6412,-5.6444,-5.6467,-5.6487,-5.653,-5.6582,-5.655,-5.6567,-5.655,-5.6588,-5.6682,-5.6549,-5.6549,-5.6573,-5.6782,-5.6807,-5.6825,-5.6662,-5.6665,-5.6667,-5.678,0,-5.6381,-5.6472,-5.6454,-5.6542,-5.6582,-5.6542,-5.6587,-5.6601,-5.6599,-5.6631,-5.6627,-5.6665,-5.662,-5.663,-5.6666,-5.6663,-5.6723,-5.6655,-5.67,-5.6702,-5.6697,-5.6844,-5.6871,-5.6978,-5.6794,-5.6797,-5.6799,0,-5.6528,-5.6554,-5.6647,-5.6656,-5.6672,-5.6713,-5.674,-5.6773,-5.6787,-5.6782,-5.6801,-5.6776,-5.6827,-5.6771,-5.6839,-5.6793,-5.681,-5.6811,-5.6815,-5.6818,-5.6756,-5.6851,-5.7011,-5.7027,-5.6821,-5.6819,-5.6818,0,-5.6637,-5.6695,-5.6757,-5.6769,-5.6781,-5.681,-5.6817,-5.6828,-5.6849,-5.6872,-5.6885,-5.6914,-5.693,-5.6953,-5.6936,-5.6897,-5.7007,-5.695,-5.7003,-5.7004,-5.7028,-5.7026,-5.7193,-5.704,-5.704,-5.704,-5.7039,0,-5.6767,-5.6825,-5.6806,-5.6845,-5.6908,-5.6886,-5.6949,-5.695,-5.696,-5.6997,-5.6964,-5.6999,-5.6976,-5.7009,-5.6996,-5.7054,-5.7061,-5.7058,-5.7054,-5.7061,-5.7061,-5.7071,-5.7063,-5.7044,-5.7043,-5.7042,-5.7041,0,-5.6899,-5.6889,-5.6954,-5.696,-5.6963,-5.7009,-5.7014,-5.7049,-5.7043,-5.709,-5.71,-5.709,-5.7127,-5.7113,-5.7152,-5.7144,-5.7217,-5.7204,-5.7213,-5.7209,-5.7263,-5.7257,-5.7441,-5.7463,-5.7297,-5.7299,-5.73,0,-5.6983,-5.7027,-5.7037,-5.706,-5.7069,-5.7106,-5.7126,-5.7106,-5.7128,-5.7147,-5.718,-5.7214,-5.724,-5.73,-5.7296,-5.7326,-5.7312,-5.7374,-5.7316,-5.7321,-5.7312,-5.7309,-5.7313,-5.7386,-5.7388,-5.7389,-5.7391,0,-5.7133,-5.7125,-5.7156,-5.7186,-5.7211,-5.7233,-5.7251,-5.7272,-5.7252,-5.7278,-5.7316,-5.7336,-5.7376,-5.741,-5.7436,-5.744,-5.7412,-5.7409,-5.7423,-5.743,-5.7433,-5.7431,-5.7244,-5.7405,-5.7403,-5.7402,-5.7402,-5.7401,-5.7243,-5.7279,-5.7292,-5.7327,-5.7339,-5.7357,-5.739,-5.7388,-5.7419,-5.745,-5.7436,-5.7479,-5.7491,-5.7523,-5.7532,-5.7564,-5.754,-5.756,-5.7565,-5.757,-5.7577,-5.7428,-5.7569,-5.7568,-5.7568,-5.7568,-5.7567,0,-5.739,-5.7396,-5.7429,-5.7456,-5.7483,-5.7455,-5.7473,-5.7498,-5.7536,-5.755,-5.7576,-5.7619,-5.7651,-5.7649,-5.7678,-5.7705,-5.7692,-5.7713,-5.7711,-5.7712,-5.7597,-5.7582,-5.7723,-5.7722,-5.7722,-5.7722,-5.7722,-5.7722,-5.747,-5.7529,-5.7523,-5.7587,-5.7592,-5.7635,-5.7648,-5.7664,-5.7674,-5.7723,-5.775,-5.7749,-5.7756,-5.7785,-5.7813,-5.7812,-5.7824,-5.7849,-5.7843,-5.7736,-5.772,-5.7706,-5.7691,-5.7852,-5.7852,-5.7955,-5.7956,-5.7956]}]]